Regional Weather Roundup
Issued by NWS

Home | Current Version | Previous Version | Graphics & Text | Print | Product List | Glossary On
Versions: 1 2 3 4 5 6 7 8 9 10 11 12 13 14 15 16 17 18 19 20 21 22 23 24 25 26 27 28
000
ASUS45 KCYS 261110
RWRWY

WYOMING REGIONAL WEATHER ROUNDUP
NATIONAL WEATHER SERVICE CHEYENNE WY
500 AM MDT SUN MAR 26 2017

NOTE:  "FAIR" INDICATES FEW OR NO CLOUDS BELOW 12,000 FEET
WITH NO SIGNIFICANT WEATHER AND/OR OBSTRUCTIONS TO VISIBILITY.

WYZ001-261200-
YELLOWSTONE NATIONAL PARK

CITY           SKY/WX    TMP DP  RH WIND       PRES   REMARKS
LK YELLOWSTONE   N/A     21  19  92 CALM      29.98S
W YELLOWSTONE  NOT AVBL

$$
WYZ002>013-054>058-071-098>099-261200-
NORTHERN WYOMING

CITY           SKY/WX    TMP DP  RH WIND       PRES   REMARKS
JACKSON        MOCLDY    28  27  93 CALM      29.98S
CODY           NOT AVBL
GREYBULL       FAIR      35  31  85 W5        29.91S WCI  31
WORLAND        MOCLDY    37  36  96 SW6       29.92R WCI  32
SHERIDAN       FAIR      35  33  92 SW3       29.92F
BUFFALO        CLOUDY    38  33  82 W7        29.91F WCI  33
GILLETTE       CLOUDY    39  36  89 N7        29.89F WCI  34
HULETT         CLOUDY    39  36  87 N7        29.91R WCI  34
NEWCASTLE      FAIR      43  34  70 N13       29.82S

$$
WYZ014>020-022>026-101>103-261200-
CENTRAL WYOMING

CITY           SKY/WX    TMP DP  RH WIND       PRES   REMARKS
BIG PINEY      FAIR      24  19  81 NW8       29.96S WCI  15
PINEDALE       FAIR      27  21  80 NW8       29.96R WCI  18
DUBOIS         FAIR      28  21  74 NW7       29.93F WCI  21
LANDER         CLOUDY    36  35  96 S3        29.93S
RIVERTON       CLOUDY    37  34  89 NW3       29.93S
CASPER         LGT RAIN  37  35  92 N9        29.90R WCI  30
DOUGLAS        LGT RAIN  39  36  89 N12       29.87S WCI  32

$$
WYZ021-027>030-104>119-261200-
SOUTHERN WYOMING

CITY           SKY/WX    TMP DP  RH WIND       PRES   REMARKS
EVANSTON       FAIR      26  23  88 SW9       30.00S WCI  17
FORT BRIDGER   FAIR      31  29  94 SW9       30.02S WCI  22
ROCK SPRINGS   CLOUDY    33  28  81 SW12      29.97R WCI  24
DIXON          LGT RAIN  36  33  88 W7        29.95R WCI  30
RAWLINS        CLOUDY    36  31  82 W14       29.89R WCI  27
SARATOGA       CLOUDY    36  36 100 N6        29.89S WCI  31
LARAMIE        FLURRIES  33  32  96 CALM      29.85S
CHEYENNE       CLOUDY    42  34  73 NE7       29.83R
TORRINGTON     CLOUDY    45  32  60 N7        29.80R
PINE BLUFFS    PTSUNNY   43  36  75 NW5       29.81S

$$




USA.gov is the U.S. government's official web portal to all federal, state and local government web resources and services.